Regional Weather Roundup
Issued by NWS

Home | Current Version | Previous Version | Text Only | Print | Product List | Glossary On
Versions: 1 2 3 4 5 6 7 8 9 10 11 12 13 14 15 16 17 18 19 20 21 22 23 24 25 26 27 28 29 30 31 32 33 34 35 36 37 38 39 40 41 42 43 44 45 46 47 48 49 50
000
ASUS43 KBIS 261810
RWRND

NORTH DAKOTA REGIONAL WEATHER ROUNDUP
NATIONAL WEATHER SERVICE BISMARCK ND
1200 PM CST MON JAN 26 2015

NOTE: "FAIR" INDICATES FEW OR NO CLOUDS BELOW 12,000 FEET WITH NO
SIGNIFICANT WEATHER AND/OR OBSTRUCTIONS TO VISIBILITY.


NDZ001>003-009>011-017-261900-
NORTHWEST NORTH DAKOTA

CITY           SKY/WX    TMP DP  RH WIND       PRES   REMARKS
WILLISTON      MOSUNNY   46  31  55 W8        29.97F
6HR MIN TEMP:  32; 6HR MAX TEMP:  46;

MINOT          MOSUNNY   41  32  70 W13       29.94R
MINOT AFB      MOSUNNY   39  37  91 NW13      29.94R
$$

NDZ018>021-031>035-040>046-261900-
SOUTHWEST NORTH DAKOTA

CITY           SKY/WX    TMP DP  RH WIND       PRES   REMARKS
BISMARCK       MOSUNNY   47  28  47 NW12      29.97R
6HR MIN TEMP:  37; 6HR MAX TEMP:  47;

DICKINSON      MOSUNNY   47  33  58 NW14      29.98R
GARRISON         N/A     42  34  73 NW14      29.96R
6HR MIN TEMP:  36; 6HR MAX TEMP:  42;

HETTINGER ARPT MOSUNNY   49  33  54 W10       30.02R
$$

NDZ004>008-012>016-024-026-027-054-261900-
NORTHEAST NORTH DAKOTA

CITY           SKY/WX    TMP DP  RH WIND       PRES   REMARKS
GRAND FORKS    CLOUDY    36  30  79 N22G30    29.82R
GRND FRKS AFB  CLOUDY    38  32  77 N18       29.83R
DEVILS LAKE    SUNNY     37  30  75 NW13      29.88R
$$

NDZ022-023-025-028>030-036>039-047>053-261900-
SOUTHEAST NORTH DAKOTA

CITY           SKY/WX    TMP DP  RH WIND       PRES   REMARKS
FARGO          MOSUNNY   44  33  65 NW17G25   29.81R
6HR MIN TEMP:  31; 6HR MAX TEMP:  44;

JAMESTOWN      SUNNY     40  31  70 NW22G31   29.88R
$$



USA.gov is the U.S. government's official web portal to all federal, state and local government web resources and services.